Time,TemperatureF,DewpointF,PressureIn,WindDirection,WindDirectionDegrees,WindSpeedMPH,WindSpeedGustMPH,Humidity,HourlyPrecipIn,Conditions,Clouds,dailyrainin,SoftwareType,DateUTC
2013-06-18 00:01:00,65.8,62.1,29.94,SE,135,0.0,1.0,88,0.00,,,-99.99,WeatherLink 5.7,2013-06-18 04:01:00,
2013-06-18 00:11:00,65.6,62.3,29.94,SE,135,0.0,1.0,89,0.00,,,-99.99,WeatherLink 5.7,2013-06-18 04:11:00,
2013-06-18 00:21:00,65.5,62.2,29.94,North,-999,0.0,0.0,89,0.00,,,-99.99,WeatherLink 5.7,2013-06-18 04:21:00,
2013-06-18 00:31:00,65.4,62.1,29.94,North,-999,0.0,0.0,89,0.00,,,-99.99,WeatherLink 5.7,2013-06-18 04:31:00,
2013-06-18 00:41:00,64.9,61.6,29.94,North,-999,0.0,0.0,89,0.00,,,-99.99,WeatherLink 5.7,2013-06-18 04:41:00,
2013-06-18 00:51:00,64.7,61.4,29.94,SE,135,0.0,1.0,89,0.00,,,-99.99,WeatherLink 5.7,2013-06-18 04:51:00,
2013-06-18 01:01:00,64.9,61.9,29.93,SE,135,0.0,1.0,90,0.00,,,-99.99,WeatherLink 5.7,2013-06-18 05:01:00,
2013-06-18 01:11:00,65.0,62.0,29.93,SE,135,0.0,1.0,90,0.00,,,-99.99,WeatherLink 5.7,2013-06-18 05:11:00,
2013-06-18 01:21:00,64.9,61.6,29.93,North,-999,0.0,0.0,89,0.00,,,-99.99,WeatherLink 5.7,2013-06-18 05:21:00,
2013-06-18 01:31:00,64.8,61.8,29.94,North,-999,0.0,0.0,90,0.00,,,-99.99,WeatherLink 5.7,2013-06-18 05:31:00,
2013-06-18 01:41:00,64.8,61.8,29.94,North,-999,0.0,0.0,90,0.00,,,-99.99,WeatherLink 5.7,2013-06-18 05:41:00,
2013-06-18 01:51:00,64.9,62.2,29.93,North,-999,0.0,0.0,91,0.00,,,-99.99,WeatherLink 5.7,2013-06-18 05:51:00,
2013-06-18 02:01:00,64.7,62.0,29.93,North,-999,0.0,0.0,91,0.00,,,-99.99,WeatherLink 5.7,2013-06-18 06:01:00,
2013-06-18 02:11:00,64.7,62.0,29.93,SE,135,0.0,1.0,91,0.00,,,-99.99,WeatherLink 5.7,2013-06-18 06:11:00,
2013-06-18 02:21:00,64.8,62.1,29.92,SE,135,0.0,1.0,91,0.00,,,-99.99,WeatherLink 5.7,2013-06-18 06:21:00,
2013-06-18 02:31:00,64.6,61.9,29.92,North,-999,0.0,0.0,91,0.00,,,-99.99,WeatherLink 5.7,2013-06-18 06:31:00,
2013-06-18 02:41:00,64.7,62.0,29.93,North,-999,0.0,0.0,91,0.00,,,-99.99,WeatherLink 5.7,2013-06-18 06:41:00,
2013-06-18 02:51:00,64.7,62.0,29.92,North,-999,0.0,0.0,91,0.00,,,-99.99,WeatherLink 5.7,2013-06-18 06:51:00,
2013-06-18 03:01:00,64.9,62.2,29.92,North,-999,0.0,0.0,91,0.00,,,-99.99,WeatherLink 5.7,2013-06-18 07:01:00,
2013-06-18 03:11:00,65.1,62.4,29.91,North,-999,0.0,0.0,91,0.00,,,-99.99,WeatherLink 5.7,2013-06-18 07:11:00,
2013-06-18 03:21:00,65.1,62.4,29.91,North,-999,0.0,0.0,91,0.00,,,-99.99,WeatherLink 5.7,2013-06-18 07:21:00,
2013-06-18 03:31:00,65.1,62.1,29.91,North,-999,0.0,0.0,90,0.00,,,-99.99,WeatherLink 5.7,2013-06-18 07:31:00,
2013-06-18 03:41:00,64.8,61.8,29.91,North,-999,0.0,0.0,90,0.00,,,-99.99,WeatherLink 5.7,2013-06-18 07:41:00,
2013-06-18 03:51:00,64.7,62.0,29.91,North,-999,0.0,0.0,91,0.00,,,-99.99,WeatherLink 5.7,2013-06-18 07:51:00,
2013-06-18 04:01:00,64.5,61.5,29.91,North,-999,0.0,0.0,90,0.00,,,-99.99,WeatherLink 5.7,2013-06-18 08:01:00,
2013-06-18 04:11:00,64.4,61.4,29.91,North,-999,0.0,0.0,90,0.00,,,-99.99,WeatherLink 5.7,2013-06-18 08:11:00,
2013-06-18 04:21:00,64.3,61.3,29.91,North,-999,0.0,0.0,90,0.00,,,-99.99,WeatherLink 5.7,2013-06-18 08:21:00,
2013-06-18 04:31:00,64.0,61.0,29.91,North,-999,0.0,0.0,90,0.00,,,-99.99,WeatherLink 5.7,2013-06-18 08:31:00,
2013-06-18 04:41:00,63.8,60.8,29.90,North,-999,0.0,0.0,90,0.00,,,-99.99,WeatherLink 5.7,2013-06-18 08:41:00,
2013-06-18 04:51:00,63.4,60.4,29.91,North,-999,0.0,0.0,90,0.00,,,-99.99,WeatherLink 5.7,2013-06-18 08:51:00,
2013-06-18 05:01:00,63.2,60.2,29.91,North,-999,0.0,0.0,90,0.00,,,-99.99,WeatherLink 5.7,2013-06-18 09:01:00,
2013-06-18 05:11:00,63.1,59.8,29.91,North,-999,0.0,0.0,89,0.00,,,-99.99,WeatherLink 5.7,2013-06-18 09:11:00,
2013-06-18 05:21:00,62.6,59.6,29.91,North,-999,0.0,0.0,90,0.00,,,-99.99,WeatherLink 5.7,2013-06-18 09:21:00,
2013-06-18 05:31:00,62.6,59.6,29.91,North,-999,0.0,0.0,90,0.00,,,-99.99,WeatherLink 5.7,2013-06-18 09:31:00,
2013-06-18 05:41:00,62.7,59.7,29.91,North,-999,0.0,0.0,90,0.00,,,-99.99,WeatherLink 5.7,2013-06-18 09:41:00,
2013-06-18 05:51:00,62.5,59.5,29.92,North,-999,0.0,0.0,90,0.00,,,-99.99,WeatherLink 5.7,2013-06-18 09:51:00,
2013-06-18 06:01:00,62.1,59.1,29.92,North,-999,0.0,0.0,90,0.00,,,-99.99,WeatherLink 5.7,2013-06-18 10:01:00,
2013-06-18 06:11:00,61.7,58.7,29.93,North,-999,0.0,0.0,90,0.00,,,-99.99,WeatherLink 5.7,2013-06-18 10:11:00,
2013-06-18 06:21:00,61.5,58.5,29.93,North,-999,0.0,0.0,90,0.00,,,-99.99,WeatherLink 5.7,2013-06-18 10:21:00,
2013-06-18 06:31:00,61.6,58.9,29.93,North,-999,0.0,0.0,91,0.00,,,-99.99,WeatherLink 5.7,2013-06-18 10:31:00,
2013-06-18 06:41:00,61.8,59.1,29.93,North,-999,0.0,0.0,91,0.00,,,-99.99,WeatherLink 5.7,2013-06-18 10:41:00,
2013-06-18 06:51:00,62.2,59.5,29.93,North,-999,0.0,0.0,91,0.00,,,-99.99,WeatherLink 5.7,2013-06-18 10:51:00,
2013-06-18 07:01:00,62.4,60.0,29.93,North,-999,0.0,0.0,92,0.00,,,-99.99,WeatherLink 5.7,2013-06-18 11:01:00,
2013-06-18 07:11:00,62.9,60.5,29.93,North,-999,0.0,0.0,92,0.00,,,-99.99,WeatherLink 5.7,2013-06-18 11:11:00,
2013-06-18 07:21:00,63.2,60.5,29.93,North,-999,0.0,0.0,91,0.00,,,-99.99,WeatherLink 5.7,2013-06-18 11:21:00,
2013-06-18 07:31:00,63.4,60.7,29.93,North,-999,0.0,0.0,91,0.00,,,-99.99,WeatherLink 5.7,2013-06-18 11:31:00,
2013-06-18 07:41:00,63.7,61.0,29.93,North,-999,0.0,0.0,91,0.00,,,-99.99,WeatherLink 5.7,2013-06-18 11:41:00,
2013-06-18 07:51:00,64.1,61.4,29.92,North,-999,0.0,0.0,91,0.00,,,-99.99,WeatherLink 5.7,2013-06-18 11:51:00,
2013-06-18 08:01:00,64.5,61.5,29.93,North,-999,0.0,0.0,90,0.00,,,-99.99,WeatherLink 5.7,2013-06-18 12:01:00,
2013-06-18 08:11:00,64.9,61.6,29.93,North,-999,0.0,0.0,89,0.00,,,-99.99,WeatherLink 5.7,2013-06-18 12:11:00,
2013-06-18 08:21:00,65.2,61.9,29.93,North,-999,0.0,0.0,89,0.00,,,-99.99,WeatherLink 5.7,2013-06-18 12:21:00,
2013-06-18 08:31:00,65.7,62.4,29.94,North,-999,0.0,0.0,89,0.00,,,-99.99,WeatherLink 5.7,2013-06-18 12:31:00,
2013-06-18 08:41:00,66.4,62.7,29.93,North,-999,0.0,0.0,88,0.00,,,-99.99,WeatherLink 5.7,2013-06-18 12:41:00,
2013-06-18 08:51:00,67.0,63.3,29.93,North,-999,0.0,0.0,88,0.00,,,-99.99,WeatherLink 5.7,2013-06-18 12:51:00,
2013-06-18 09:01:00,67.8,63.8,29.93,North,-999,0.0,0.0,87,0.00,,,-99.99,WeatherLink 5.7,2013-06-18 13:01:00,
2013-06-18 09:11:00,68.4,64.0,29.92,North,-999,0.0,0.0,86,0.00,,,-99.99,WeatherLink 5.7,2013-06-18 13:11:00,
2013-06-18 09:21:00,68.9,64.2,29.93,North,-999,0.0,0.0,85,0.00,,,-99.99,WeatherLink 5.7,2013-06-18 13:21:00,
2013-06-18 09:31:00,69.5,64.8,29.92,North,-999,0.0,0.0,85,0.00,,,-99.99,WeatherLink 5.7,2013-06-18 13:31:00,
2013-06-18 09:41:00,70.3,64.9,29.92,North,-999,0.0,0.0,83,0.00,,,-99.99,WeatherLink 5.7,2013-06-18 13:41:00,
2013-06-18 09:51:00,71.0,64.9,29.92,North,-999,0.0,0.0,81,0.00,,,-99.99,WeatherLink 5.7,2013-06-18 13:51:00,
2013-06-18 10:01:00,71.6,65.5,29.92,North,-999,0.0,0.0,81,0.00,,,-99.99,WeatherLink 5.7,2013-06-18 14:01:00,
2013-06-18 10:11:00,72.3,65.8,29.91,North,-999,0.0,1.0,80,0.00,,,-99.99,WeatherLink 5.7,2013-06-18 14:11:00,
2013-06-18 10:21:00,72.9,65.6,29.91,North,-999,0.0,1.0,78,0.00,,,-99.99,WeatherLink 5.7,2013-06-18 14:21:00,
2013-06-18 10:31:00,73.7,65.3,29.91,North,-999,0.0,1.0,75,0.00,,,-99.99,WeatherLink 5.7,2013-06-18 14:31:00,
2013-06-18 10:41:00,74.4,64.4,29.91,SE,135,0.0,1.0,71,0.00,,,-99.99,WeatherLink 5.7,2013-06-18 14:41:00,
2013-06-18 10:51:00,75.0,63.7,29.91,North,-999,0.0,1.0,68,0.00,,,-99.99,WeatherLink 5.7,2013-06-18 14:51:00,
2013-06-18 11:01:00,75.1,64.2,29.91,North,-999,0.0,0.0,69,0.00,,,-99.99,WeatherLink 5.7,2013-06-18 15:01:00,
2013-06-18 11:11:00,75.4,64.5,29.90,East,90,0.0,2.0,69,0.00,,,-99.99,WeatherLink 5.7,2013-06-18 15:11:00,
2013-06-18 11:21:00,75.8,64.9,29.90,East,90,0.0,2.0,69,0.00,,,-99.99,WeatherLink 5.7,2013-06-18 15:21:00,
2013-06-18 11:31:00,76.5,65.6,29.91,East,90,0.0,1.0,69,0.00,,,-99.99,WeatherLink 5.7,2013-06-18 15:31:00,
2013-06-18 11:41:00,76.8,66.3,29.91,North,-999,0.0,0.0,70,0.00,,,-99.99,WeatherLink 5.7,2013-06-18 15:41:00,
2013-06-18 11:51:00,76.7,67.4,29.90,North,-999,0.0,1.0,73,0.00,,,-99.99,WeatherLink 5.7,2013-06-18 15:51:00,
2013-06-18 12:01:00,76.4,67.1,29.90,East,90,0.0,1.0,73,0.00,,,-99.99,WeatherLink 5.7,2013-06-18 16:01:00,
2013-06-18 12:11:00,76.1,67.2,29.91,North,-999,0.0,0.0,74,0.00,,,-99.99,WeatherLink 5.7,2013-06-18 16:11:00,
2013-06-18 12:21:00,76.0,66.7,29.90,North,-999,0.0,0.0,73,0.00,,,-99.99,WeatherLink 5.7,2013-06-18 16:21:00,
2013-06-18 12:31:00,75.9,66.2,29.90,North,-999,0.0,0.0,72,0.00,,,-99.99,WeatherLink 5.7,2013-06-18 16:31:00,
2013-06-18 12:41:00,75.7,67.2,29.88,North,-999,0.0,0.0,75,0.00,,,-99.99,WeatherLink 5.7,2013-06-18 16:41:00,
2013-06-18 12:51:00,75.9,66.2,29.88,North,-999,0.0,0.0,72,0.00,,,-99.99,WeatherLink 5.7,2013-06-18 16:51:00,
2013-06-18 13:01:00,76.3,65.8,29.87,East,90,0.0,1.0,70,0.00,,,-99.99,WeatherLink 5.7,2013-06-18 17:01:00,
2013-06-18 13:11:00,76.6,66.5,29.87,North,-999,0.0,1.0,71,0.00,,,-99.99,WeatherLink 5.7,2013-06-18 17:11:00,
2013-06-18 13:21:00,76.6,67.7,29.87,North,-999,0.0,0.0,74,0.00,,,-99.99,WeatherLink 5.7,2013-06-18 17:21:00,
2013-06-18 13:31:00,76.3,68.2,29.88,North,-999,0.0,0.0,76,0.00,,,-99.99,WeatherLink 5.7,2013-06-18 17:31:00,
2013-06-18 13:41:00,76.0,68.6,29.88,North,-999,0.0,0.0,78,0.00,,,-99.99,WeatherLink 5.7,2013-06-18 17:41:00,
2013-06-18 13:51:00,75.5,68.5,29.89,North,-999,0.0,0.0,79,0.00,,,-99.99,WeatherLink 5.7,2013-06-18 17:51:00,
2013-06-18 14:01:00,74.8,67.8,29.89,North,-999,0.0,0.0,79,0.00,,,-99.99,WeatherLink 5.7,2013-06-18 18:01:00,
2013-06-18 14:11:00,74.4,67.8,29.88,North,-999,0.0,0.0,80,0.00,,,-99.99,WeatherLink 5.7,2013-06-18 18:11:00,
2013-06-18 14:21:00,73.9,67.7,29.88,East,90,0.0,1.0,81,0.00,,,-99.99,WeatherLink 5.7,2013-06-18 18:21:00,
2013-06-18 14:31:00,73.5,68.0,29.87,North,-999,0.0,0.0,83,0.00,,,-99.99,WeatherLink 5.7,2013-06-18 18:31:00,
2013-06-18 14:41:00,73.4,68.3,29.86,North,-999,0.0,1.0,84,0.01,,,-99.99,WeatherLink 5.7,2013-06-18 18:41:00,
2013-06-18 14:51:00,73.5,68.7,29.86,East,90,0.0,1.0,85,0.01,,,-99.99,WeatherLink 5.7,2013-06-18 18:51:00,
2013-06-18 15:01:00,73.7,68.9,29.86,North,-999,0.0,0.0,85,0.01,,,-99.99,WeatherLink 5.7,2013-06-18 19:01:00,
2013-06-18 15:11:00,73.9,69.1,29.85,North,-999,0.0,0.0,85,0.01,,,-99.99,WeatherLink 5.7,2013-06-18 19:11:00,
2013-06-18 15:21:00,73.8,68.7,29.85,North,-999,0.0,0.0,84,0.01,,,-99.99,WeatherLink 5.7,2013-06-18 19:21:00,
2013-06-18 15:31:00,73.6,68.8,29.85,North,-999,0.0,0.0,85,0.01,,,-99.99,WeatherLink 5.7,2013-06-18 19:31:00,
2013-06-18 15:41:00,73.4,69.3,29.86,North,-999,0.0,0.0,87,0.00,,,-99.99,WeatherLink 5.7,2013-06-18 19:41:00,
2013-06-18 15:51:00,73.2,69.1,29.85,East,90,0.0,2.0,87,0.00,,,-99.99,WeatherLink 5.7,2013-06-18 19:51:00,
2013-06-18 16:01:00,72.9,68.8,29.87,East,90,0.0,2.0,87,0.00,,,-99.99,WeatherLink 5.7,2013-06-18 20:01:00,
2013-06-18 16:11:00,72.8,68.7,29.86,North,-999,0.0,0.0,87,0.00,,,-99.99,WeatherLink 5.7,2013-06-18 20:11:00,
2013-06-18 16:21:00,72.5,69.1,29.86,North,-999,0.0,0.0,89,0.02,,,-99.99,WeatherLink 5.7,2013-06-18 20:21:00,
2013-06-18 16:31:00,72.3,68.9,29.86,North,-999,0.0,1.0,89,0.03,,,-99.99,WeatherLink 5.7,2013-06-18 20:31:00,
2013-06-18 16:41:00,72.0,68.6,29.87,North,-999,0.0,1.0,89,0.04,,,-99.99,WeatherLink 5.7,2013-06-18 20:41:00,
2013-06-18 16:51:00,71.8,68.7,29.86,East,90,0.0,1.0,90,0.04,,,-99.99,WeatherLink 5.7,2013-06-18 20:51:00,
2013-06-18 17:01:00,71.5,68.1,29.86,East,90,1.0,2.0,89,0.04,,,-99.99,WeatherLink 5.7,2013-06-18 21:01:00,
2013-06-18 17:11:00,70.7,67.3,29.86,East,90,1.0,2.0,89,0.04,,,-99.99,WeatherLink 5.7,2013-06-18 21:11:00,
2013-06-18 17:21:00,70.1,66.7,29.86,East,90,0.0,2.0,89,0.02,,,-99.99,WeatherLink 5.7,2013-06-18 21:21:00,
2013-06-18 17:31:00,69.6,66.2,29.88,North,-999,0.0,0.0,89,0.01,,,-99.99,WeatherLink 5.7,2013-06-18 21:31:00,
2013-06-18 17:41:00,69.4,65.7,29.90,East,90,0.0,1.0,88,0.01,,,-99.99,WeatherLink 5.7,2013-06-18 21:41:00,
2013-06-18 17:51:00,68.2,63.9,29.90,East,90,0.0,1.0,86,0.08,,,-99.99,WeatherLink 5.7,2013-06-18 21:51:00,
2013-06-18 18:01:00,66.6,61.9,29.88,East,90,0.0,2.0,85,0.21,,,-99.99,WeatherLink 5.7,2013-06-18 22:01:00,
2013-06-18 18:11:00,65.3,61.7,29.89,East,90,0.0,2.0,88,0.24,,,-99.99,WeatherLink 5.7,2013-06-18 22:11:00,
2013-06-18 18:21:00,64.7,61.7,29.89,East,90,0.0,1.0,90,0.26,,,-99.99,WeatherLink 5.7,2013-06-18 22:21:00,
2013-06-18 18:31:00,64.6,61.6,29.88,North,-999,0.0,0.0,90,0.27,,,-99.99,WeatherLink 5.7,2013-06-18 22:31:00,
2013-06-18 18:41:00,64.5,61.5,29.89,North,-999,0.0,0.0,90,0.26,,,-99.99,WeatherLink 5.7,2013-06-18 22:41:00,
2013-06-18 18:51:00,64.6,61.9,29.88,North,-999,0.0,0.0,91,0.19,,,-99.99,WeatherLink 5.7,2013-06-18 22:51:00,
2013-06-18 19:01:00,64.5,61.8,29.89,East,90,0.0,1.0,91,0.07,,,-99.99,WeatherLink 5.7,2013-06-18 23:01:00,
2013-06-18 19:11:00,64.5,61.8,29.87,North,-999,0.0,1.0,91,0.05,,,-99.99,WeatherLink 5.7,2013-06-18 23:11:00,
2013-06-18 19:21:00,64.5,61.8,29.88,East,90,0.0,1.0,91,0.03,,,-99.99,WeatherLink 5.7,2013-06-18 23:21:00,
2013-06-18 19:31:00,64.6,62.2,29.87,North,-999,0.0,0.0,92,0.02,,,-99.99,WeatherLink 5.7,2013-06-18 23:31:00,
2013-06-18 19:41:00,64.4,62.0,29.87,North,-999,0.0,0.0,92,0.02,,,-99.99,WeatherLink 5.7,2013-06-18 23:41:00,
2013-06-18 19:51:00,64.4,61.7,29.88,East,90,0.0,1.0,91,0.02,,,-99.99,WeatherLink 5.7,2013-06-18 23:51:00,
2013-06-18 20:01:00,64.3,61.6,29.89,North,-999,0.0,1.0,91,0.01,,,-99.99,WeatherLink 5.7,2013-06-19 00:01:00,
2013-06-18 20:11:00,64.0,61.6,29.87,North,-999,0.0,0.0,92,0.00,,,-99.99,WeatherLink 5.7,2013-06-19 00:11:00,
2013-06-18 20:21:00,63.9,61.5,29.88,East,90,0.0,1.0,92,0.00,,,-99.99,WeatherLink 5.7,2013-06-19 00:21:00,
2013-06-18 20:31:00,63.9,61.5,29.90,North,-999,0.0,0.0,92,0.00,,,-99.99,WeatherLink 5.7,2013-06-19 00:31:00,
2013-06-18 20:41:00,63.8,61.4,29.89,North,-999,0.0,1.0,92,0.00,,,-99.99,WeatherLink 5.7,2013-06-19 00:41:00,
2013-06-18 20:51:00,63.7,61.3,29.89,North,-999,0.0,0.0,92,0.00,,,-99.99,WeatherLink 5.7,2013-06-19 00:51:00,
2013-06-18 21:01:00,63.6,61.2,29.89,North,-999,0.0,0.0,92,0.00,,,-99.99,WeatherLink 5.7,2013-06-19 01:01:00,
2013-06-18 21:11:00,63.6,61.2,29.89,North,-999,0.0,0.0,92,0.00,,,-99.99,WeatherLink 5.7,2013-06-19 01:11:00,
2013-06-18 21:21:00,63.5,61.4,29.89,North,-999,0.0,0.0,93,0.00,,,-99.99,WeatherLink 5.7,2013-06-19 01:21:00,
2013-06-18 21:31:00,63.5,61.1,29.90,North,-999,0.0,0.0,92,0.00,,,-99.99,WeatherLink 5.7,2013-06-19 01:31:00,
2013-06-18 21:41:00,63.4,61.0,29.89,North,-999,0.0,1.0,92,0.00,,,-99.99,WeatherLink 5.7,2013-06-19 01:41:00,
2013-06-18 21:51:00,63.3,60.9,29.91,East,90,0.0,1.0,92,0.00,,,-99.99,WeatherLink 5.7,2013-06-19 01:51:00,
2013-06-18 22:01:00,63.1,60.7,29.91,SSW,202,0.0,3.0,92,0.00,,,-99.99,WeatherLink 5.7,2013-06-19 02:01:00,
2013-06-18 22:11:00,62.9,60.5,29.91,SSW,202,0.0,2.0,92,0.00,,,-99.99,WeatherLink 5.7,2013-06-19 02:11:00,
2013-06-18 22:21:00,62.7,60.3,29.91,SSW,202,0.0,1.0,92,0.00,,,-99.99,WeatherLink 5.7,2013-06-19 02:21:00,
2013-06-18 22:31:00,62.5,60.1,29.91,SSW,202,0.0,2.0,92,0.00,,,-99.99,WeatherLink 5.7,2013-06-19 02:31:00,
2013-06-18 22:41:00,62.3,59.9,29.92,SSW,202,0.0,1.0,92,0.00,,,-99.99,WeatherLink 5.7,2013-06-19 02:41:00,
2013-06-18 22:51:00,62.2,59.8,29.92,SSW,202,0.0,2.0,92,0.00,,,-99.99,WeatherLink 5.7,2013-06-19 02:51:00,
2013-06-18 23:01:00,62.0,59.6,29.92,SE,135,0.0,1.0,92,0.00,,,-99.99,WeatherLink 5.7,2013-06-19 03:01:00,
2013-06-18 23:11:00,61.8,59.5,29.92,SE,135,0.0,3.0,92,0.00,,,-99.99,WeatherLink 5.7,2013-06-19 03:11:00,
2013-06-18 23:21:00,61.5,58.8,29.92,South,180,0.0,2.0,91,0.00,,,-99.99,WeatherLink 5.7,2013-06-19 03:21:00,
2013-06-18 23:31:00,61.3,58.7,29.93,South,180,0.0,1.0,91,0.00,,,-99.99,WeatherLink 5.7,2013-06-19 03:31:00,
2013-06-18 23:41:00,61.0,58.4,29.93,South,180,0.0,1.0,91,0.00,,,-99.99,WeatherLink 5.7,2013-06-19 03:41:00,
2013-06-18 23:51:00,60.7,58.1,29.93,North,-999,0.0,1.0,91,0.00,,,-99.99,WeatherLink 5.7,2013-06-19 03:51:00,